TimeCST,TemperatureF,Dew PointF,Humidity,Sea Level PressureIn,VisibilityMPH,Wind Direction,Wind SpeedMPH,Gust SpeedMPH,PrecipitationIn,Events,Conditions,WindDirDegrees,DateUTC
6:00 AM,73,72,95,29.89,1,East,3.5,,,,Mist,100,2013-10-08 12:00:00
6:00 AM,73.4,71.6,94,29.87,0.6,East,3.5,-,N/A,,Mist,100,2013-10-08 12:00:00
7:00 AM,75.2,71.6,89,29.88,0.5,NE,3.5,-,N/A,Fog,Fog,50,2013-10-08 13:00:00
7:10 AM,75.2,71.6,89,29.88,1.9,NE,3.5,-,N/A,,Scattered Clouds,50,2013-10-08 13:10:00
7:27 AM,77.0,73.4,89,29.88,6.2,NE,3.5,-,N/A,,Scattered Clouds,40,2013-10-08 13:27:00
8:00 AM,78.8,73.4,83,29.88,6.2,ENE,3.5,-,N/A,,Scattered Clouds,70,2013-10-08 14:00:00
9:00 AM,81,75,78,29.90,12,SSW,4.6,,,,Partly Cloudy,200,2013-10-08 15:00:00
9:00 AM,80.6,75.2,84,29.89,6.2,SSW,4.6,-,N/A,,Scattered Clouds,200,2013-10-08 15:00:00
10:00 AM,82.4,75.2,79,29.89,6.2,WSW,4.6,-,N/A,,Scattered Clouds,250,2013-10-08 16:00:00
11:00 AM,86.0,75.2,70,29.87,6.2,SSE,3.5,-,N/A,,Scattered Clouds,150,2013-10-08 17:00:00
12:00 PM,89,75,56,29.85,12,SW,3.5,,,,Partly Cloudy,220,2013-10-08 18:00:00
12:00 PM,87.8,75.2,66,29.84,6.2,SW,3.5,-,N/A,,Scattered Clouds,220,2013-10-08 18:00:00
1:00 PM,91.4,73.4,55,29.81,6.2,ESE,8.1,-,N/A,,Scattered Clouds,120,2013-10-08 19:00:00
2:00 PM,93.2,71.6,49,29.78,6.2,NE,5.8,-,N/A,,Scattered Clouds,40,2013-10-08 20:00:00
3:00 PM,92,73,45,29.77,12,East,4.6,,,,Partly Cloudy,80,2013-10-08 21:00:00
3:00 PM,93.2,73.4,52,29.76,6.2,East,4.6,-,N/A,,Scattered Clouds,80,2013-10-08 21:00:00
3:40 PM,84.2,77.0,79,29.78,6.2,North,4.6,-,N/A,Rain-Thunderstorm,Thunderstorms and Rain,10,2013-10-08 21:40:00
4:00 PM,78.8,75.2,89,29.78,6.2,WNW,5.8,-,N/A,Rain-Thunderstorm,Light Thunderstorms and Rain,300,2013-10-08 22:00:00
5:00 PM,78.8,75.2,89,29.79,6.2,SSW,5.8,-,N/A,Thunderstorm,Mostly Cloudy,210,2013-10-08 23:00:00
6:00 PM,78,73,82,29.82,12,SSW,3.5,,,,Partly Cloudy,200,2013-10-09 00:00:00
6:00 PM,78.8,73.4,83,29.80,6.2,SSW,3.5,-,N/A,,Overcast,200,2013-10-09 00:00:00
7:00 PM,77.0,73.4,89,29.83,6.2,NNW,2.3,-,N/A,,Overcast,340,2013-10-09 01:00:00
8:00 PM,77.0,73.4,89,29.85,6.2,NE,3.5,-,N/A,,Overcast,40,2013-10-09 02:00:00